Regional Weather Roundup
Issued by NWS Boston, MA

Current Version | Previous Version | Text Only | Print | Product List | Glossary Off
Versions: 1 2 3 4 5 6 7 8 9 10 11 12 13 14 15 16 17 18 19 20 21 22 23 24 25 26 27 28 29 30 31 32 33 34 35 36 37 38 39 40 41 42 43 44 45 46 47 48 49 50
000 ASUS41 KBOX 211910 RWRBOX REGIONAL WEATHER ROUNDUP NATIONAL WEATHER SERVICE TAUNTON MA 300 PM EDT SAT OCT 21 2017 NOTE: "FAIR" INDICATES FEW OR NO CLOUDS BELOW 12,000 FEET WITH NO SIGNIFICANT WEATHER AND/OR OBSTRUCTIONS TO VISIBILITY. MAZALL-212000- EASTERN MASSACHUSETTS CITY SKY/WX TMP DP RH WIND PRES REMARKS BOSTON MOSUNNY 77 36 22 W9 30.23F BEVERLY SUNNY 77 39 25 W8 30.22F LAWRENCE SUNNY 78 44 29 VRB7 30.25F BEDFORD SUNNY 77 33 20 W9 30.23S BLUE HILL N/A 76 35 22 W8 30.25S NORWOOD SUNNY 80 36 20 SW9 30.24F MARSHFIELD SUNNY 75 43 31 SW8 30.25S PLYMOUTH SUNNY 72 43 35 S8 30.27S TAUNTON SUNNY 73 41 31 SW8 30.26S NEW BEDFORD SUNNY 70 42 36 SW13 30.27S $$ MAZALL-212000- CAPE COD AND THE ISLANDS CITY SKY/WX TMP DP RH WIND PRES REMARKS FALMOUTH SUNNY 70 43 37 SW9 30.29S HYANNIS SUNNY 67 47 48 SW13 30.27S CHATHAM SUNNY 67 50 54 SW6 30.29S PROVINCETOWN SUNNY 68 47 46 SW14 30.27S NANTUCKET SUNNY 64 52 64 SW14 30.30S MARTHAS VNYRD SUNNY 66 46 48 S13 30.29F $$ MAZALL-212000- CENTRAL AND WESTERN MASSACHUSETTS CITY SKY/WX TMP DP RH WIND PRES REMARKS WORCESTER SUNNY 71 34 25 W12 30.29S FITCHBURG SUNNY 79 42 26 NW12 30.27S ORANGE SUNNY 74 42 31 S8 30.27S SPRINGFIELD PTSUNNY 77 40 26 SW3 30.26F WESTFIELD SUNNY 78 33 19 NW9 30.26F NORTH ADAMS SUNNY 73 40 30 W8G16 30.28S PITTSFIELD SUNNY 72 39 30 VRB6 30.29F $$ RIZALL-212000- RHODE ISLAND CITY SKY/WX TMP DP RH WIND PRES REMARKS PROVIDENCE MOSUNNY 73 43 33 S10 30.27S NEWPORT SUNNY 68 46 45 S14 30.28S BLOCK ISLAND SUNNY 66 49 54 SW14 30.31S SMITHFIELD SUNNY 76 41 28 VRB5 30.27S WESTERLY SUNNY 71 43 36 SW9 30.30S $$ CTZALL-212000- CONNECTICUT CITY SKY/WX TMP DP RH WIND PRES REMARKS BRADLEY INTL PTSUNNY 80 32 17 W10 30.26F HARTFORD SUNNY 81 38 21 NW5 30.26F BRIDGEPORT SUNNY 72 46 39 SW9 30.29F DANBURY SUNNY 78 36 21 SW10 30.30F GROTON SUNNY 68 52 56 SW10 30.28F NEW HAVEN SUNNY 70 42 36 S8 30.29F CHESTER FAIR 77 39 25 SW9 30.29S MERIDEN SUNNY 80 34 19 W6 30.27F WILLIMANTIC SUNNY 78 34 20 W7 30.28S OXFORD SUNNY 76 38 25 VRB7 30.30F $$ MEZ002-015-021-024-NHZ003-005-008-011-012-014-VTZ005-008-212000- NORTHERN NEW ENGLAND CITY SKY/WX TMP DP RH WIND PRES REMARKS PORTLAND ME MOSUNNY 68 45 43 SE6 30.22 BANGOR ME MOSUNNY 68 40 35 VRB3 30.23S CONCORD NH SUNNY 78 42 27 W9 30.23S MANCHESTER NH MOSUNNY 77 40 26 VRB7 30.22S NASHUA NH SUNNY 76 41 28 W8 30.25R PORTSMOUTH NH MOSUNNY 76 42 29 SW9 30.21S JAFFREY NH SUNNY 74 41 30 W6 30.28S KEENE NH SUNNY 77 42 28 VRB7 30.26F BURLINGTON VT PTSUNNY 73 43 33 S10 30.23S MT. WASHINGTON MOSUNNY 45 39 81 NW38G48 N/A $$ NYZ052-076-212000- EASTERN NEW YORK CITY SKY/WX TMP DP RH WIND PRES REMARKS ALBANY CLOUDY 74 43 32 CALM 30.27F NEW YORK CITY MOSUNNY 79 44 28 W8 30.29F $$ ANZALL-212000- MARINE OBSERVATIONS STATION/POSITION TIME TEMP WIND PRES VSBY WAVE AIR SEA DIR/SP/G HT/PER (UTC) (F) (DEG/KT/KT) (MB) (MI) (FT/S) BOSTON BUOY 1850 62 60 150/ 6/ 8 1023.6F 1 BUZZARDS BAY 1800 63 210/ 12/ 13 1026.1F NANTUCKET SOUND 1850 63 63 230/ 12/ 14 1025.6F 1/ 3 MASS BAY-STELLWA 1804 62 59 180/ 10/ 10 1023.2F 1/ 8 ISLE OF SHOALS 1800 67 200/ 12/ 13 1023.3F S OF BLOCK IS NOT AVBL $$ ......................KEY......................... SKY/WX - SKY CONDITION/PRESENT WEATHER TMP - TEMPERATURE IN FAHRENHEIT DWPT - DEWPOINT IN FAHRENHEIT RH - RELATIVE HUMIDITY IN PERCENT WIND - DIRECTION AND SPEED IN MPH PRES - MEAN SEA LEVEL PRESSURE IN INCHES OF HG WCI - WIND CHILL INDEX VSB - VISIBILITY IN MILES HX - HEAT INDEX TC - TEMPERATURE IN CELSIUS VRB - VARIABLE WIND DIRECTION N/A - NOT AVAILABLE

USA.gov is the U.S. government's official web portal to all federal, state and local government web resources and services.